Weather in Zarechnoye

Russia / Astrakhan Oblast     45°52′44″N   47°27′26″E
temp.,
°C
wind,
m/s
gust,
m/s
humid.,
%
clouds,
%
prec.,
mm/h
press.,
hPa
HPBL,
m
18 may, tue
tue1801:00+21e5114651 0.0 1006168
04:00+20e51152100 0.0 1004170
07:00+22se6125585 0.0 1006473
10:00+24se8114585 0.0 1006603
13:00+25se3450100 0.1 1006724
16:00+27wsw873795 0.1 10071062
19:00+25w77465 0.0 10081080
22:00+22wnw69615 0.0 1010335
19 may, wed
wed1901:00+19wnw610673 0.0 1010325
04:00+17nw611677 0.0 1010245
07:00+18nnw696214 0.0 1010301
10:00+23n564532 0.0 1008475
13:00+27nnw223014 0.0 10081074
16:00+30nw6526100 0.0 10081899
19:00+22wnw14175395 0.0 1010764
22:00+18wnw121667100 0.3 1013593
20 may, thu
thu2001:00+18nw81361100 0.3 1014635
04:00+16nw611720 0.3 1016514
07:00+16nw69670 0.0 1017480
10:00+21nw78447 0.0 10181044
13:00+24nw78340 0.0 10171376
16:00+26nw56310 0.0 10161795
19:00+25nw45330 0.0 10171561
22:00+22nne22410 0.0 101712
21 may, fri
fri2101:00+19s3353100 0.0 101840
04:00+19ne115649 0.0 101811
07:00+21ese34490 0.0 1018144
10:00+25e56350 0.0 1019975
13:00+28se662910 0.0 10181421
16:00+28se77298 0.0 10171265
19:00+25se79370 0.0 1018587
22:00+21se48530 0.0 1018156
22 may, sat
sat2201:00+20ese49570 0.0 1017162
04:00+20e59630 0.0 1017157
07:00+21e611570 0.0 1018269
10:00+28ese810360 0.0 1017961
13:00+30ese89281 0.0 10171282
16:00+30ese910290 0.0 10161180
19:00+27ese79370 0.0 1015717
22:00+23e512540 0.0 1015212